Location: Home
(42.5358°N, 72.7383°W)
Time: 20:45:04
(UTC-05:00)

Vanguard 2 Rocket - Pass Details

Date: 09 December 2021
Orbit: 554 x 3325 km, 32.9° (Epoch: 21 January)

Event Time Altitude Azimuth Distance (km) Brightness Sun altitude
Rises 23:54:15 0° 257° (WSW) 5,164 - -70.2°
Reaches altitude 10° 00:01:59 10° 225° (SW) 4,940 - -69.9°
Maximum altitude 00:04:52 11° 214° (SSW) 5,118 - -69.8°
Drops below altitude 10° 00:08:00 10° 202° (SSW) 5,433 - -69.6°
Sets 00:19:02 0° 173° (S) 7,074 - -68.9°
